Location: Unspecified
(0.0000°N, 0.0000°E)
Time: 17:51:29
(UTC+00:00)

STARLINK 1055 - Pass Details

Date: 20 January 2020
Orbit: 548 x 551 km, 53.0° (Epoch: 17 January)

Event Time Altitude Azimuth Distance (km) Brightness Sun altitude
Rises 04:46:59 0° 192° (SSW) 2,713 7.3 -19.6°
Reaches altitude 10° 04:49:36 10° 176° (S) 1,817 6.6 -19.0°
Maximum altitude 04:52:49 22° 124° (SE) 1,224 6.3 -18.2°
Drops below altitude 10° 04:56:02 10° 73° (ENE) 1,811 7.0 -17.5°
Sets 04:58:38 0° 57° (ENE) 2,700 7.7 -16.9°
